| time (UTC) | temp C | wind direction | speed KPH | gust KPH | rain 1hr cm | rain 24hr cm | rain mn cm | humidity % | barometer mb |
| 20260510044502 | 23 | 325 | 0.0 | 4.8 | 0.00 | 0.00 | 0.00 | 59 | 1006.3 |
| 20260510043001 | 24 | 200 | 0.0 | 4.8 | 0.00 | 0.00 | 0.00 | 59 | 1006.3 |
| 20260510041502 | 25 | 209 | 0.0 | 4.8 | 0.00 | 0.00 | 0.00 | 57 | 1006.3 |
| 20260510040002 | 25 | 196 | 0.0 | 4.8 | 0.00 | 0.00 | 0.00 | 54 | 1006.3 |
| 20260510034501 | 26 | 184 | 0.0 | 4.8 | 0.00 | 0.00 | 0.00 | 54 | 1006.3 |
| 20260510033001 | 26 | 153 | 1.6 | 6.4 | 0.00 | 0.00 | 0.00 | 54 | 1006.2 |
| 20260510031504 | 26 | 171 | 1.6 | 8.0 | 0.00 | 0.00 | 0.00 | 55 | 1006.0 |
| 20260510030002 | 26 | 188 | 0.0 | 8.0 | 0.00 | 0.00 | 0.00 | 56 | 1005.9 |
| 20260510024502 | 26 | 137 | 1.6 | 8.0 | 0.00 | 0.00 | 0.00 | 54 | 1005.7 |
| 20260510023003 | 27 | 147 | 1.6 | 6.4 | 0.00 | 0.00 | 0.00 | 51 | 1005.5 |
| 20260510021501 | 27 | 202 | 1.6 | 9.7 | 0.00 | 0.00 | 0.00 | 48 | 1005.3 |
| 20260510020004 | 28 | 182 | 1.6 | 8.0 | 0.00 | 0.00 | 0.00 | 45 | 1005.0 |
| 20260510014501 | 28 | 138 | 3.2 | 8.0 | 0.00 | 0.00 | 0.00 | 43 | 1005.0 |
| 20260510013001 | 29 | 151 | 1.6 | 8.0 | 0.00 | 0.00 | 0.00 | 41 | 1004.7 |
| 20260510011502 | 30 | 169 | 1.6 | 9.7 | 0.00 | 0.00 | 0.00 | 41 | 1004.7 |
| 20260510010001 | 30 | 176 | 1.6 | 4.8 | 0.00 | 0.00 | 0.00 | 38 | 1004.6 |
| 20260510004501 | 30 | 187 | 3.2 | 9.7 | 0.00 | 0.00 | 0.00 | 38 | 1004.5 |
| 20260510003002 | 31 | 195 | 1.6 | 6.4 | 0.00 | 0.00 | 0.00 | 38 | 1004.5 |
| 20260510001502 | 31 | 172 | 1.6 | 6.4 | 0.00 | 0.00 | 0.00 | 34 | 1004.4 |
| 20260510000002 | 31 | 269 | 1.6 | 6.4 | 0.00 | 0.00 | 0.00 | 36 | 1004.4 |
| 20260509234501 | 31 | 226 | 0.0 | 6.4 | 0.00 | 0.00 | 0.00 | 35 | 1004.2 |
| 20260509233006 | 32 | 251 | 3.2 | 9.7 | 0.00 | 0.00 | 0.00 | 32 | 1004.4 |
| 20260509231501 | 32 | 244 | 1.6 | 16.1 | 0.00 | 0.00 | 0.00 | 34 | 1004.5 |
| 20260509230001 | 32 | 306 | 1.6 | 9.7 | 0.00 | 0.00 | 0.00 | 31 | 1004.6 |
| 20260509224501 | 32 | 202 | 0.0 | 8.0 | 0.00 | 0.00 | 0.00 | 35 | 1004.7 |
| 20260509223005 | 32 | 187 | 3.2 | 12.9 | 0.00 | 0.00 | 0.00 | 34 | 1004.5 |
| 20260509221501 | 32 | 161 | 4.8 | 12.9 | 0.00 | 0.00 | 0.00 | 33 | 1004.6 |
| 20260509220001 | 32 | 268 | 3.2 | 12.9 | 0.00 | 0.00 | 0.00 | 39 | 1004.9 |
| 20260509214502 | 32 | 222 | 1.6 | 16.1 | 0.00 | 0.00 | 0.00 | 40 | 1005.0 |
| 20260509213002 | 32 | 228 | 3.2 | 11.3 | 0.00 | 0.00 | 0.00 | 34 | 1005.4 |
| 20260509211501 | 32 | 306 | 3.2 | 11.3 | 0.00 | 0.00 | 0.00 | 36 | 1005.6 |
| 20260509210010 | 31 | 156 | 3.2 | 8.0 | 0.00 | 0.00 | 0.00 | 39 | 1005.8 |
| 20260509204502 | 31 | 281 | 4.8 | 12.9 | 0.00 | 0.00 | 0.00 | 41 | 1005.9 |
| 20260509203001 | 31 | 213 | 3.2 | 12.9 | 0.00 | 0.00 | 0.00 | 41 | 1005.9 |
| 20260509201501 | 31 | 244 | 3.2 | 11.3 | 0.00 | 0.00 | 0.00 | 45 | 1006.2 |
| 20260509200003 | 31 | 132 | 3.2 | 11.3 | 0.00 | 0.00 | 0.00 | 45 | 1006.6 |
| 20260509194502 | 31 | 241 | 3.2 | 12.9 | 0.00 | 0.00 | 0.00 | 45 | 1006.8 |
| 20260509193001 | 31 | 296 | 4.8 | 12.9 | 0.00 | 0.00 | 0.00 | 44 | 1007.0 |
| 20260509191501 | 30 | 180 | 4.8 | 11.3 | 0.00 | 0.00 | 0.00 | 46 | 1007.2 |
| 20260509190006 | 30 | 167 | 0.0 | 14.5 | 0.00 | 0.00 | 0.00 | 52 | 1007.4 |
| 20260509184502 | 30 | 220 | 3.2 | 12.9 | 0.00 | 0.00 | 0.00 | 50 | 1007.6 |
| 20260509183002 | 30 | 165 | 3.2 | 11.3 | 0.00 | 0.00 | 0.00 | 50 | 1007.8 |
| 20260509181502 | 29 | 153 | 4.8 | 9.7 | 0.00 | 0.00 | 0.00 | 51 | 1008.1 |
| 20260509180002 | 28 | 242 | 1.6 | 11.3 | 0.00 | 0.00 | 0.00 | 58 | 1008.4 |
| 20260509174502 | 28 | 200 | 3.2 | 14.5 | 0.00 | 0.00 | 0.00 | 54 | 1008.6 |
| 20260509173002 | 27 | 184 | 3.2 | 11.3 | 0.00 | 0.00 | 0.00 | 61 | 1008.8 |
| 20260509171502 | 27 | 197 | 3.2 | 9.7 | 0.00 | 0.00 | 0.00 | 64 | 1008.8 |
| 20260509170003 | 26 | 306 | 3.2 | 9.7 | 0.00 | 0.00 | 0.00 | 64 | 1008.9 |
| 20260509164501 | 25 | 197 | 1.6 | 9.7 | 0.00 | 0.00 | 0.00 | 68 | 1009.0 |
| 20260509163121 | 25 | 183 | 3.2 | 11.3 | 0.00 | 0.00 | 0.00 | 65 | 1009.1 |
| 20260509163005 | 25 | 273 | 3.2 | 11.3 | 0.00 | 0.00 | 0.00 | 68 | 1009.1 |
| 20260509161501 | 24 | 199 | 4.8 | 9.7 | 0.00 | 0.00 | 0.00 | 70 | 1009.1 |
| 20260509160006 | 23 | 173 | 4.8 | 8.0 | 0.00 | 0.00 | 0.00 | 74 | 1009.1 |
| 20260509154502 | 23 | 184 | 1.6 | 6.4 | 0.00 | 0.00 | 0.00 | 74 | 1009.2 |
| 20260509153005 | 22 | 181 | 1.6 | 8.0 | 0.00 | 0.00 | 0.00 | 76 | 1009.4 |
| 20260509151606 | 21 | 231 | 1.6 | 6.4 | 0.00 | 0.00 | 0.00 | 81 | 1009.4 |
| 20260509150126 | 20 | 226 | 0.0 | 4.8 | 0.00 | 0.00 | 0.00 | 86 | 1009.9 |
| 20260509150001 | 20 | 191 | 0.0 | 4.8 | 0.00 | 0.00 | 0.00 | 85 | 1009.9 |
| 20260509144501 | 19 | 313 | 1.6 | 6.4 | 0.00 | 0.00 | 0.00 | 86 | 1010.0 |
| 20260509143101 | 19 | 267 | 0.0 | 4.8 | 0.00 | 0.00 | 0.00 | 87 | 1009.9 |
| 20260509141602 | 18 | 321 | 3.2 | 8.0 | 0.00 | 0.00 | 0.00 | 91 | 1009.7 |
| 20260509140004 | 17 | 332 | 1.6 | 6.4 | 0.00 | 0.00 | 0.00 | 91 | 1009.6 |
| 20260509134502 | 17 | 307 | 1.6 | 4.8 | 0.00 | 0.00 | 0.00 | 91 | 1009.7 |
| 20260509133002 | 17 | 315 | 3.2 | 8.0 | 0.00 | 0.00 | 0.00 | 89 | 1009.7 |
| 20260509131501 | 17 | 320 | 0.0 | 4.8 | 0.00 | 0.00 | 0.00 | 91 | 1009.4 |
| 20260509130107 | 16 | 340 | 0.0 | 1.6 | 0.00 | 0.00 | 0.00 | 91 | 1009.3 |
| 20260509130002 | 16 | 340 | 0.0 | 1.6 | 0.00 | 0.00 | 0.00 | 91 | 1009.3 |
| 20260509124617 | 16 | 340 | 0.0 | 0.0 | 0.00 | 0.00 | 0.00 | 92 | 1009.5 |
| 20260509124501 | 15 | 340 | 0.0 | 0.0 | 0.00 | 0.00 | 0.00 | 92 | 1009.5 |
| 20260509123002 | 15 | 340 | 0.0 | 1.6 | 0.00 | 0.00 | 0.00 | 91 | 1008.9 |
| 20260509121504 | 15 | 340 | 0.0 | 3.2 | 0.00 | 0.00 | 0.00 | 91 | 1008.8 |
| 20260509120108 | 15 | 336 | 0.0 | 3.2 | 0.00 | 0.00 | 0.00 | 91 | 1008.5 |
| 20260509120002 | 15 | 336 | 0.0 | 3.2 | 0.00 | 0.00 | 0.00 | 91 | 1008.4 |
| 20260509114606 | 15 | 274 | 0.0 | 3.2 | 0.00 | 0.00 | 0.00 | 91 | 1008.4 |
| 20260509113101 | 15 | 248 | 0.0 | 3.2 | 0.00 | 0.00 | 0.00 | 90 | 1008.3 |
| 20260509111600 | 15 | 207 | 0.0 | 3.2 | 0.00 | 0.00 | 0.00 | 90 | 1008.5 |
| 20260509111508 | 15 | 232 | 0.0 | 3.2 | 0.00 | 0.00 | 0.00 | 90 | 1008.4 |
| 20260509110001 | 15 | 291 | 0.0 | 4.8 | 0.00 | 0.00 | 0.00 | 90 | 1008.4 |
| 20260509104601 | 15 | 292 | 0.0 | 1.6 | 0.00 | 0.00 | 0.00 | 90 | 1008.5 |
| 20260509103100 | 16 | 146 | 0.0 | 0.0 | 0.00 | 0.00 | 0.00 | 90 | 1008.6 |
| 20260509101501 | 16 | 146 | 0.0 | 3.2 | 0.00 | 0.00 | 0.00 | 90 | 1008.9 |
| 20260509100105 | 16 | 165 | 1.6 | 4.8 | 0.00 | 0.00 | 0.00 | 89 | 1008.8 |
| 20260509100003 | 16 | 165 | 1.6 | 4.8 | 0.00 | 0.00 | 0.00 | 89 | 1008.8 |
| 20260509094600 | 16 | 165 | 0.0 | 3.2 | 0.00 | 0.00 | 0.00 | 89 | 1009.1 |
| 20260509094507 | 16 | 165 | 0.0 | 3.2 | 0.00 | 0.00 | 0.00 | 89 | 1009.2 |
| 20260509093101 | 16 | 165 | 0.0 | 3.2 | 0.00 | 0.00 | 0.00 | 89 | 1008.5 |
| 20260509091501 | 16 | 165 | 0.0 | 0.0 | 0.00 | 0.00 | 0.00 | 89 | 1008.6 |
| 20260509090108 | 16 | 165 | 0.0 | 0.0 | 0.00 | 0.00 | 0.00 | 89 | 1008.6 |
| 20260509090002 | 16 | 165 | 0.0 | 0.0 | 0.00 | 0.00 | 0.00 | 89 | 1008.7 |
| 20260509084501 | 16 | 165 | 0.0 | 3.2 | 0.00 | 0.00 | 0.00 | 89 | 1008.3 |
| 20260509083100 | 16 | 165 | 0.0 | 8.0 | 0.00 | 0.00 | 0.00 | 89 | 1008.1 |
| 20260509083001 | 17 | 165 | 1.6 | 8.0 | 0.00 | 0.00 | 0.00 | 89 | 1008.2 |
| 20260509081601 | 16 | 355 | 0.0 | 0.0 | 0.00 | 0.00 | 0.00 | 88 | 1008.4 |
| 20260509080002 | 17 | 355 | 0.0 | 0.0 | 0.00 | 0.00 | 0.00 | 88 | 1008.9 |
| 20260509074602 | 17 | 355 | 0.0 | 0.0 | 0.00 | 0.00 | 0.00 | 88 | 1008.9 |
| 20260509073100 | 17 | 355 | 3.2 | 4.8 | 0.00 | 0.00 | 0.00 | 88 | 1009.0 |
| 20260509071618 | 17 | 304 | 3.2 | 8.0 | 0.00 | 0.00 | 0.00 | 87 | 1008.6 |
| 20260509070002 | 17 | 265 | 0.0 | 3.2 | 0.00 | 0.00 | 0.00 | 86 | 1007.4 |
| 20260509064502 | 17 | 265 | 0.0 | 3.2 | 0.00 | 0.00 | 0.00 | 85 | 1007.5 |
| 20260509063059 | 17 | 265 | 0.0 | 4.8 | 0.00 | 0.00 | 0.00 | 84 | 1007.4 |
| 20260509061602 | 18 | 200 | 0.0 | 1.6 | 0.00 | 0.00 | 0.00 | 83 | 1007.3 |
| 20260509061502 | 18 | 200 | 0.0 | 1.6 | 0.00 | 0.00 | 0.00 | 83 | 1007.3 |
| 20260509060108 | 18 | 200 | 0.0 | 1.6 | 0.00 | 0.00 | 0.00 | 83 | 1007.2 |
| 20260509060003 | 18 | 200 | 0.0 | 1.6 | 0.00 | 0.00 | 0.00 | 83 | 1007.2 |
| 20260509054502 | 18 | 200 | 0.0 | 0.0 | 0.00 | 0.00 | 0.00 | 82 | 1007.1 |
| 20260509053002 | 18 | 200 | 0.0 | 0.0 | 0.00 | 0.00 | 0.00 | 82 | 1007.1 |
| 20260509051501 | 19 | 200 | 0.0 | 3.2 | 0.00 | 0.00 | 0.00 | 82 | 1007.1 |
| 20260509050007 | 19 | 200 | 0.0 | 4.8 | 0.00 | 0.00 | 0.00 | 82 | 1007.1 |